• en France
  • Liste des pays
  • À 7 jours
  • Température de l'eau
  • Carte satellitaire
  • Carte météo
  • Widgets météo
  • user-avatar
    Se connecter

    Météo par heure à Maidougouri

    Ce jour, 24 Septembre, Lundi

    Heure Température Précipitation Vent Pression Humidité
    00:00 +30°C° 0 mm 2 m/s 727 mmHg 51%
    01:00 +29°C° 0 mm 2 m/s 727 mmHg 57%
    02:00 +29°C° 0 mm 2 m/s 727 mmHg 60%
    03:00 +28°C° 0 mm 2 m/s 727 mmHg 63%
    04:00 +28°C° 0 mm 2 m/s 726 mmHg 66%
    05:00 +28°C° 0 mm 2 m/s 727 mmHg 68%
    06:00 +28°C° 0 mm 2 m/s 727 mmHg 69%
    07:00 +29°C° 0 mm 3 m/s 727 mmHg 68%
    08:00 +31°C° 0 mm 3 m/s 728 mmHg 61%
    09:00 +34°C° 0 mm 2 m/s 728 mmHg 53%
    10:00 +36°C° 0 mm 2 m/s 728 mmHg 45%
    11:00 +37°C° 0 mm 2 m/s 728 mmHg 40%
    12:00 +39°C° 0 mm 2 m/s 727 mmHg 35%
    13:00 +38°C° 0 mm 3 m/s 727 mmHg 34%
    14:00 +38°C° 0.1 mm 3 m/s 727 mmHg 35%
    15:00 +38°C° 0.1 mm 3 m/s 727 mmHg 37%
    16:00 +37°C° 0.1 mm 3 m/s 726 mmHg 38%
    17:00 +36°C° 0 mm 3 m/s 726 mmHg 42%
    18:00 +35°C° 0 mm 2 m/s 726 mmHg 45%
    19:00 +32°C° 0 mm 2 m/s 726 mmHg 49%
    20:00 +32°C° 0 mm 2 m/s 727 mmHg 51%
    21:00 +31°C° 0 mm 2 m/s 727 mmHg 52%
    22:00 +31°C° 0 mm 2 m/s 727 mmHg 54%
    23:00 +30°C° 0.4 mm 1 m/s 727 mmHg 58%

    Demain, 25 Septembre, Mardi

    Heure Température Précipitation Vent Pression Humidité
    00:00 +29°C° 0.4 mm 1 m/s 727 mmHg 63%
    01:00 +28°C° 0.4 mm 1 m/s 727 mmHg 67%
    02:00 +28°C° 0 mm 1 m/s 727 mmHg 68%
    03:00 +28°C° 0 mm 2 m/s 727 mmHg 69%
    04:00 +28°C° 0 mm 2 m/s 726 mmHg 70%
    05:00 +28°C° 0 mm 2 m/s 727 mmHg 70%
    06:00 +28°C° 0 mm 2 m/s 727 mmHg 70%
    07:00 +28°C° 0 mm 3 m/s 727 mmHg 70%
    08:00 +30°C° 0 mm 2 m/s 728 mmHg 61%
    09:00 +34°C° 0 mm 2 m/s 728 mmHg 52%
    10:00 +37°C° 0 mm 2 m/s 728 mmHg 42%
    11:00 +38°C° 0 mm 2 m/s 728 mmHg 38%
    12:00 +39°C° 0 mm 2 m/s 727 mmHg 33%
    13:00 +41°C° 0 mm 2 m/s 727 mmHg 29%
    14:00 +40°C° 0 mm 2 m/s 726 mmHg 29%
    15:00 +40°C° 0 mm 2 m/s 726 mmHg 30%
    16:00 +39°C° 0 mm 2 m/s 725 mmHg 31%
    17:00 +37°C° 1.5 mm 4 m/s 725 mmHg 42%
    18:00 +34°C° 1.5 mm 5 m/s 725 mmHg 52%
    19:00 +30°C° 1.5 mm 6 m/s 725 mmHg 63%
    20:00 +30°C° 1.4 mm 6 m/s 726 mmHg 63%
    21:00 +30°C° 1.4 mm 5 m/s 726 mmHg 63%
    22:00 +29°C° 1.4 mm 4 m/s 727 mmHg 63%
    23:00 +29°C° 0 mm 3 m/s 727 mmHg 62%

    Après-demain, 26 Septembre, Mercredi

    Heure Température Précipitation Vent Pression Humidité
    00:00 +29°C° 0 mm 3 m/s 726 mmHg 61%
    01:00 +29°C° 0 mm 2 m/s 726 mmHg 60%
    02:00 +28°C° 0.2 mm 2 m/s 726 mmHg 63%
    03:00 +28°C° 0.2 mm 2 m/s 725 mmHg 66%
    04:00 +27°C° 0.2 mm 2 m/s 725 mmHg 69%
    05:00 +27°C° 0 mm 2 m/s 726 mmHg 69%
    06:00 +27°C° 0 mm 3 m/s 726 mmHg 70%
    07:00 +27°C° 0 mm 3 m/s 727 mmHg 71%
    08:00 +30°C° 0 mm 3 m/s 727 mmHg 63%
    09:00 +33°C° 0 mm 3 m/s 728 mmHg 56%
    10:00 +36°C° 0 mm 4 m/s 728 mmHg 49%
    11:00 +37°C° 0 mm 3 m/s 728 mmHg 44%
    12:00 +39°C° 0 mm 2 m/s 727 mmHg 39%
    13:00 +40°C° 0 mm 1 m/s 726 mmHg 34%
    14:00 +40°C° 0 mm 1 m/s 726 mmHg 33%
    15:00 +40°C° 0 mm 1 m/s 725 mmHg 31%
    16:00 +40°C° 0 mm 1 m/s 724 mmHg 30%
    17:00 +38°C° 0 mm 2 m/s 724 mmHg 35%
    18:00 +36°C° 0 mm 3 m/s 724 mmHg 39%
    19:00 +34°C° 0 mm 3 m/s 724 mmHg 44%
    20:00 +33°C° 0.2 mm 3 m/s 725 mmHg 49%
    21:00 +32°C° 0.2 mm 4 m/s 726 mmHg 55%
    22:00 +30°C° 0.2 mm 4 m/s 726 mmHg 61%
    23:00 +30°C° 0 mm 4 m/s 726 mmHg 62%

    27 Septembre, Jeudi

    Heure Température Précipitation Vent Pression Humidité
    00:00 +29°C° 0 mm 3 m/s 726 mmHg 63%
    01:00 +29°C° 0 mm 3 m/s 726 mmHg 63%
    02:00 +29°C° 0.1 mm 4 m/s 726 mmHg 65%
    03:00 +28°C° 0.1 mm 4 m/s 726 mmHg 67%
    04:00 +28°C° 0.1 mm 5 m/s 726 mmHg 68%
    05:00 +27°C° 0 mm 4 m/s 726 mmHg 68%
    06:00 +27°C° 0 mm 4 m/s 726 mmHg 67%
    07:00 +27°C° 0 mm 3 m/s 726 mmHg 66%
    08:00 +30°C° 0 mm 3 m/s 727 mmHg 58%
    09:00 +33°C° 0 mm 3 m/s 727 mmHg 51%
    10:00 +35°C° 0 mm 4 m/s 728 mmHg 43%
    11:00 +37°C° 0 mm 3 m/s 727 mmHg 40%
    12:00 +38°C° 0 mm 3 m/s 727 mmHg 36%
    13:00 +39°C° 0 mm 3 m/s 726 mmHg 32%
    14:00 +39°C° 0 mm 2 m/s 725 mmHg 31%
    15:00 +39°C° 0 mm 2 m/s 725 mmHg 31%
    16:00 +39°C° 0 mm 2 m/s 724 mmHg 30%
    17:00 +38°C° 0 mm 2 m/s 725 mmHg 34%
    18:00 +36°C° 0 mm 2 m/s 725 mmHg 38%
    19:00 +34°C° 0 mm 3 m/s 725 mmHg 43%
    20:00 +33°C° 0.4 mm 4 m/s 725 mmHg 50%
    21:00 +32°C° 0.4 mm 5 m/s 726 mmHg 57%
    22:00 +29°C° 0.4 mm 6 m/s 727 mmHg 63%
    23:00 +29°C° 0 mm 5 m/s 726 mmHg 65%

    28 Septembre, Vendredi

    Heure Température Précipitation Vent Pression Humidité
    00:00 +29°C° 0 mm 5 m/s 726 mmHg 66%
    01:00 +28°C° 0 mm 5 m/s 726 mmHg 67%
    02:00 +28°C° 0 mm 4 m/s 726 mmHg 68%
    03:00 +27°C° 0 mm 3 m/s 725 mmHg 68%
    04:00 +27°C° 0 mm 2 m/s 725 mmHg 69%
    05:00 +27°C° 0.3 mm 3 m/s 726 mmHg 70%
    06:00 +27°C° 0.3 mm 3 m/s 726 mmHg 70%
    07:00 +27°C° 0.3 mm 3 m/s 727 mmHg 70%
    08:00 +29°C° 0.1 mm 3 m/s 728 mmHg 64%
    09:00 +31°C° 0.1 mm 3 m/s 728 mmHg 57%
    10:00 +34°C° 0.1 mm 3 m/s 729 mmHg 51%
    11:00 +36°C° 0 mm 3 m/s 728 mmHg 46%
    12:00 +37°C° 0 mm 2 m/s 727 mmHg 41%
    13:00 +39°C° 0 mm 2 m/s 726 mmHg 36%
    14:00 +39°C° 0 mm 1 m/s 726 mmHg 35%
    15:00 +39°C° 0 mm 1 m/s 726 mmHg 34%
    16:00 +39°C° 0 mm 1 m/s 725 mmHg 33%
    17:00 +37°C° 1.4 mm 3 m/s 725 mmHg 42%
    18:00 +34°C° 1.4 mm 4 m/s 725 mmHg 52%
    19:00 +32°C° 1.4 mm 6 m/s 726 mmHg 61%
    20:00 +30°C° 6 mm 5 m/s 726 mmHg 65%
    21:00 +29°C° 6 mm 4 m/s 727 mmHg 70%
    22:00 +28°C° 6 mm 3 m/s 727 mmHg 74%
    23:00 +28°C° 1.3 mm 2 m/s 727 mmHg 75%

    29 Septembre, Samedi

    Heure Température Précipitation Vent Pression Humidité
    00:00 +27°C° 1.3 mm 2 m/s 727 mmHg 75%
    01:00 +27°C° 1.3 mm 2 m/s 727 mmHg 76%
    02:00 +27°C° 1.8 mm 2 m/s 727 mmHg 79%
    03:00 +27°C° 1.8 mm 2 m/s 727 mmHg 81%
    04:00 +26°C° 1.8 mm 2 m/s 727 mmHg 84%
    05:00 +27°C° 0 mm 2 m/s 727 mmHg 82%
    06:00 +27°C° 0 mm 2 m/s 727 mmHg 81%
    07:00 +27°C° 0 mm 3 m/s 727 mmHg 79%
    08:00 +29°C° 0 mm 3 m/s 727 mmHg 70%
    09:00 +31°C° 0 mm 3 m/s 727 mmHg 61%
    10:00 +34°C° 0 mm 3 m/s 728 mmHg 51%
    11:00 +36°C° 0 mm 2 m/s 727 mmHg 46%
    12:00 +37°C° 0 mm 1 m/s 726 mmHg 41%
    13:00 +39°C° 0 mm 1 m/s 726 mmHg 35%
    14:00 +39°C° 0 mm 1 m/s 725 mmHg 35%
    15:00 +39°C° 0 mm 2 m/s 725 mmHg 34%
    16:00 +39°C° 0 mm 2 m/s 725 mmHg 33%
    17:00 +37°C° 0.5 mm 2 m/s 725 mmHg 39%
    18:00 +35°C° 0.5 mm 3 m/s 725 mmHg 44%
    19:00 +33°C° 0.5 mm 3 m/s 725 mmHg 49%
    20:00 +32°C° 0.4 mm 4 m/s 726 mmHg 56%
    21:00 +30°C° 0.4 mm 4 m/s 726 mmHg 63%
    22:00 +29°C° 0.4 mm 5 m/s 727 mmHg 70%
    23:00 +29°C° 0 mm 4 m/s 726 mmHg 70%
    Voir plus